Home   Weather   32°17'N, 81°14'W   Past weeks
Flag for USA

Past Weather in 32°17'N, 81°14'W, USA — Yesterday and Last 2 Weeks

Now
81 °F

Sunny.


Feels Like: 84 °F
Forecast: 91 / 76 °F
Wind: 13 mph from Southwest

Location: Hunter U. S. Army Airfield

Current Time: Jul 19, 2019 at 7:41:59 pm

Latest Report: Jul 19, 2019 at 6:56 pm


Visibility: 10 mi

Pressure: 30.02 "Hg

Humidity: 72%

Dew Point: 71 °F

Location of 32°17'N, 81°14'WLocation

Past Weather in 32°17'N, 81°14'W — Graph

°F

32°17'N, 81°14'W Temperature Yesterday

Maximum temperature yesterday: 94 °F (at 12:56 pm)
Minimum temperature yesterday: 75 °F (at 6:56 am)
Average temperature yesterday: 83 °F

High & Low Weather Summary for the Past Weeks

 TemperatureHumidityPressure
High98 °F (Jul 16, 3:56 pm)95% (Jul 5, 7:56 am)30.14 "Hg (Jul 5, 7:56 am)
Low73 °F (Jul 13, 5:56 am)34% (Jul 16, 2:56 pm)29.81 "Hg (Jul 8, 5:56 pm)
Average83 °F76%30.01 "Hg
* Reported Jul 4 5:18 pm — Jul 19 5:56 pm, 32°17'N, 81°14'W. Weather by CustomWeather, © 2019

Note: Actual official high and low records may vary slightly from our data, if they occured in-between our weather recording intervals... More about our weather records

Advertising

32°17'N, 81°14'W Weather History for the Previous 24 Hours

Scroll right to see more
 ConditionsComfort  
Time TempWeatherWind HumidityBarometerVisibility
5:56 pm
Fri, Jul 19
82 °FThundershowers. Broken clouds.9 mph64%30.03 "Hg10 mi
5:17 pm86 °FThunderstorms. Scattered clouds.10 mph66%30.02 "Hg10 mi
4:56 pm90 °FThunderstorms. Broken clouds.13 mph64%30.01 "Hg10 mi
3:56 pm89 °FPartly sunny.10 mph64%30.01 "Hg10 mi
2:56 pm92 °FBroken clouds.7 mph61%30.03 "Hg10 mi
1:56 pm91 °FPartly sunny.No wind61%30.06 "Hg10 mi
12:56 pm87 °FScattered clouds.5 mph63%30.08 "Hg10 mi
12:23 pm88 °FPassing clouds.6 mph62%30.09 "Hg10 mi
11:56 am87 °FScattered clouds.5 mph63%30.09 "Hg10 mi
10:56 am87 °FScattered clouds.5 mph62%30.09 "Hg10 mi
9:56 am84 °FPassing clouds.7 mph70%30.08 "Hg10 mi
8:56 am80 °FPassing clouds.5 mph81%30.07 "Hg10 mi
7:56 am78 °FSunny.5 mph89%30.06 "Hg10 mi
6:56 am76 °FSunny.No wind90%30.04 "Hg10 mi
5:56 am76 °FPassing clouds.No wind90%30.03 "Hg10 mi
4:56 am76 °FPassing clouds.No wind89%30.01 "Hg10 mi
3:56 am76 °FPassing clouds.3 mph89%30.01 "Hg10 mi
2:56 am77 °FPassing clouds.No wind87%30.01 "Hg10 mi
1:56 am78 °FOvercast.No wind85%30.03 "Hg10 mi
12:56 am78 °FMostly cloudy.No wind83%30.04 "Hg10 mi
11:56 pm
Thu, Jul 18
78 °FPassing clouds.No wind82%30.06 "Hg10 mi
10:56 pm79 °FThundershowers. Partly cloudy.3 mph81%30.07 "Hg10 mi
9:56 pm79 °FPassing clouds.5 mph79%30.06 "Hg10 mi
8:56 pm82 °FPartly cloudy.8 mph80%30.03 "Hg10 mi
7:56 pm82 °FThundershowers. Broken clouds.7 mph76%30.01 "Hg10 mi
7:28 pm81 °FThundershowers. Passing clouds.9 mph70%30.00 "Hg10 mi
7:13 pm81 °FThunderstorms. Passing clouds.9 mph70%29.99 "Hg10 mi
7:01 pm82 °FThunderstorms. Broken clouds.10 mph62%29.99 "Hg10 mi
Weather by CustomWeather, © 2019

See weather overview